Location: Gugi
(45.4667°N, 11.1000°E)
Time: 10:56:53
(UTC+00:00)

Cosmos 1867 - Pass Details

Date: 17 November 2019
Orbit: 776 x 799 km, 65.0° (Epoch: 12 December)

Event Time Altitude Azimuth Distance (km) Brightness Sun altitude
Rises 16:15:09 0° 229° (SW) 3,283 8.4 -5.8°
Reaches altitude 10° 16:17:37 10° 235° (SW) 2,360 7.6 -6.2°
Maximum altitude 16:22:55 52° 311° (NW) 985 4.3 -7.1°
Drops below altitude 10° 16:28:17 10° 28° (NNE) 2,381 5.6 -8.0°
Enters shadow 16:30:04 - 32° (NNE) 3,043 6.1 -8.3°
